Regional Weather Roundup
Issued by NWS

Home | Current Version | Previous Version | Graphics & Text | Print | Product List | Glossary On
Versions: 1 2 3 4 5 6 7 8 9 10 11 12 13 14 15 16 17 18 19 20 21 22 23 24 25 26 27 28 29 30 31 32 33 34 35 36 37 38 39 40 41 42 43 44 45 46 47 48 49 50
000
ASUS43 KMKX 281200
RWRWI

WISCONSIN REGIONAL WEATHER ROUNDUP
NATIONAL WEATHER SERVICE MILWAUKEE/SULLIVAN WI
700 AM CDT SAT MAY 28 2016

NOTE: "FAIR" INDICATES FEW OR NO CLOUDS BELOW 12,000 FEET WITH NO
SIGNIFICANT WEATHER AND/OR OBSTRUCTIONS TO VISIBILITY.

WIZ001-002-006>008-014>016-023>028-281300-
NORTHWEST WISCONSIN

CITY           SKY/WX    TMP DP  RH WIND       PRES   REMARKS
SUPERIOR ARPT  FOG       45  45 100 NE3       29.79S VSB 1
ASHLAND        CLOUDY    49  47  93 VRB5      29.78S
6HR MIN TEMP:  45; 6HR MAX TEMP:  49;

HAYWARD        LGT RAIN  56  56 100 CALM      29.79F
6HR MIN TEMP:  55; 6HR MAX TEMP:  57; 6HR PCP: TRACE;

SIREN          CLOUDY    53  52  97 CALM      29.78S
CUMBERLAND     LGT RAIN  55  55 100 N6        29.77F
RICE LAKE      DRIZZLE   59  58  96 CALM      29.79R
CHETEK         CLOUDY    60  60 100 N6        29.76F FOG
LADYSMITH      CLOUDY    63  62  97 NW10      29.77F FOG
EAU CLAIRE     CLOUDY    62  62 100 CALM      29.73R
MENOMONIE      CLOUDY    63  63 100 NW13      29.71F FOG
NEW RICHMOND   LGT RAIN  61  61 100 CALM      29.77F
OSCEOLA        FOG       58  58 100 NW3       29.80R VSB 1
$$

WIZ003>005-009-010-017-018-281300-
NORTH CENTRAL WISCONSIN

CITY           SKY/WX    TMP DP  RH WIND       PRES   REMARKS
MANITOWISH WTR NOT AVBL
ARBOR VITAE    LGT RAIN  66  64  94 SE3       29.79S
WOODRUFF       LGT RAIN  66  64  94 SE3       29.79S
RHINELANDER    CLOUDY    67  65  93 CALM      29.79S FOG
6HR MIN TEMP:  65; 6HR MAX TEMP:  67; 6HR PCP: TRACE;

EAGLE RIVER      N/A     64  64  99 CALM      29.80R FOG
LAND O LAKES   CLOUDY    64  64  99 SE3       29.81S FOG
PHILLIPS       CLOUDY    64  64 100 NW3       29.76F
TOMAHAWK       CLOUDY    65  64  95 CALM      29.79R FOG
MEDFORD        CLOUDY    65  65 100 E3        29.76F FOG
MERRILL        CLOUDY   N/A N/A N/A S3        29.78F FOG
$$

WIZ029-030-035-036-043>047-281300-
CENTRAL WISCONSIN

CITY           SKY/WX    TMP DP  RH WIND       PRES   REMARKS
WAUSAU         CLOUDY    69  66  90 SE8       29.75F FOG
6HR MIN TEMP:  68; 6HR MAX TEMP:  69; 6HR PCP: TRACE;

MOSINEE        RAIN      66  66 100 SE13      29.77F VSB 1
MARSHFIELD     HVY RAIN  68  65  90 S12       29.75S VSB 1/2
6HR MIN TEMP:  68; 6HR MAX TEMP:  69; 6HR PCP:  0.20;

STEVENS POINT  RAIN      65  65  97 SE6       29.78S
WAUPACA        CLOUDY    69  69 100 SE5       29.78F
WAUTOMA        CLOUDY    67  66  97 SE8       29.77F
6HR MIN TEMP:  66; 6HR MAX TEMP:  69; 6HR PCP:  0.05;

WISC RAPIDS    CLOUDY    68  65  90 S7        29.77S
6HR MIN TEMP:  67; 6HR MAX TEMP:  68; 6HR PCP: TRACE;

CAMP DOUGLAS   DRIZZLE   68 N/A N/A E8        29.73F
$$

WIZ011>013-019>022-031-037>040-048>050-281300-
NORTHEAST WISCONSIN

CITY           SKY/WX    TMP DP  RH WIND       PRES   REMARKS
ANTIGO         FOG       65  65 100 SE9       29.81S VSB 1/2
SHAWANO        CLOUDY    69  67  93 S6        29.80S
OCONTO         CLOUDY   N/A N/A N/A SE5       29.81S
STURGEON BAY   NOT AVBL
GREEN BAY      CLOUDY    69  66  90 SE7       29.81S
6HR MIN TEMP:  66; 6HR MAX TEMP:  69;

MANITOWOC      NOT AVBL
APPLETON       PTSUNNY   68  66  94 SE8       29.79F
CLINTONVILLE   CLOUDY    66  64  94 SE5       29.79F
OSHKOSH        CLOUDY    69  65  86 S9        29.78F
6HR MIN TEMP:  67; 6HR MAX TEMP:  69; 6HR PCP:  0.01;

$$

WIZ032>034-041-042-053>061-281300-
SOUTHWEST WISCONSIN

CITY           SKY/WX    TMP DP  RH WIND       PRES   REMARKS
LA CROSSE      LGT RAIN  66  64  93 NW7       29.71F
6HR MIN TEMP:  65; 6HR MAX TEMP:  68; 6HR PCP:  0.56;

SPARTA         CLOUDY    65  65 100 N5        29.73F FOG
VIROQUA        CLOUDY    65  65 100 CALM      29.73S
BOSCOBEL       LGT RAIN  67  65  93 CALM      29.74R
6HR MIN TEMP:  66; 6HR MAX TEMP:  70; 6HR PCP:  0.75;

PRAIRIE DU CHI DRIZZLE   66  65  96 CALM      29.74R
PLATTEVILLE    CLOUDY    67  66  96 S15       29.76R
$$

WIZ056-057-062-063-064-067-068-281300-
SOUTH CENTRAL WISCONSIN

CITY           SKY/WX    TMP DP  RH WIND       PRES   REMARKS
REEDSBURG      CLOUDY    67  66  95 S8        29.74S
BARABOO/DELLS  CLOUDY    67  64  88 S8        29.75F
LONE ROCK      NOT AVBL
MINERAL POINT  CLOUDY    68  68 100 S10G16    29.76R
MADISON        CLOUDY    69  66  90 S15       29.77S
6HR MIN TEMP:  68; 6HR MAX TEMP:  72; 6HR PCP:  0.06;

MIDDLETON      CLOUDY    70  67  90 S13G18    29.77S
WATERTOWN      CLOUDY    68  67  97 S14       29.80S
MONROE         CLOUDY    68  64  88 S16G22    29.79R
JANESVILLE     DRIZZLE   70  68  94 S15G21    29.81R
$$

WIZ051-052-058>065-066-070>072-281300-
SOUTHEAST WISCONSIN

CITY           SKY/WX    TMP DP  RH WIND       PRES   REMARKS
MILWAUKEE      CLOUDY    69  63  81 S13       29.84S
6HR MIN TEMP:  64; 6HR MAX TEMP:  70;

WAUKESHA       PTSUNNY   66  64  94 S9        29.84F
MILWAUKEE/TIMM CLOUDY    68  61  77 S10       29.84S
RACINE         CLOUDY    63  59  87 S13       29.87S
6HR MIN TEMP:  62; 6HR MAX TEMP:  67; 6HR PCP: TRACE;

BURLINGTON     CLOUDY    67  64  91 S7        29.84R
KENOSHA        CLOUDY    68  63  84 S8        29.85S
6HR MIN TEMP:  67; 6HR MAX TEMP:  71; 6HR PCP: TRACE;

FOND DU LAC    MOSUNNY   70  65  84 S16       29.79F
6HR MIN TEMP:  68; 6HR MAX TEMP:  70; 6HR PCP: TRACE;

SHEBOYGAN      CLOUDY    63  61  93 S8        29.83S
6HR MIN TEMP:  62; 6HR MAX TEMP:  65; 6HR PCP: TRACE;

WEST BEND      CLOUDY    68  63  83 S7        29.83S
JUNEAU         PTSUNNY   67  64  90 SE15      29.81F
$$

LSZ147-162-281300-
LAKE SUPERIOR

STATION/POSITION TIME  TEMP    WIND        PRES    WAVE
                       AIR SEA DIR/SP/G            HT/PER
                 (UTC) (F)     (DEG/KT/KT) (MB)    (FT/S)
W MID LAKE BUOY  1050   40 38   50/ 10/ 10 1008.6R   2/ 5
DEVILS ISLAND    1100   43     360/  3/  4 1009.0R
SAXON HARBOR     1140   49      CALM  /  2 1008.1R
$$

LMZ867-665-643>646-281300-
LAKE MICHIGAN

STATION/POSITION TIME  TEMP    WIND        PRES    WAVE
                       AIR SEA DIR/SP/G            HT/PER
                 (UTC) (F)     (DEG/KT/KT) (MB)    (FT/S)
CHAMBERS ISLAND  1100   64     160/  6/ 17 1010.2
N MID LAKE BUOY  1050   53 46  190/ 14/ 16 1010.7R   1/ 3
NORTHPORT PIER   1100   58     150/  8/ 10 1010.8R
SISTER BAY       1135   58     160/ 13/ 16   N/A
ALGOMA LAKESHORE 1117          190/  4/  7   N/A
KEWAUNEE LAKESHO 1100   51     170/  9/ 10 1010.1R
SHEBOYGAN LAKESH 1100   54     170/ 14/ 14 1010.8F
PORT WASHINGTON  1100   56     170/  3/  4 1011.5
S MID LAKE BUOY  1050   56 50  130/ 12/ 14 1011.3F   1/ 3
KENOSHA   LAKESH 1100   58     170/ 12/ 19 1010.8S
$$

TC  - TEMPERATURE IN CELSIUS
VSB - VISIBILITY IN STATUTE MILES
WCI - WIND CHILL INDEX
HX  - HEAT INDEX





USA.gov is the U.S. government's official web portal to all federal, state and local government web resources and services.